Weather in Kerchevsky

Russia / Perm Krai     59°56′47″N   56°17′28″E
temp.,
°C
wind,
m/s
gust,
m/s
humid.,
%
clouds,
%
prec.,
mm/h
press.,
hPa
HPBL,
m
7 march, sun
sun723:00−17w229888 0.2 100828
02:00−19wsw229978 0.0 100920
05:00−20wsw119982 0.1 100920
08:00−22wsw119982 0.0 100920
11:00−17ssw129089 0.1 1009284
14:00−14sw2381100 0.1 1008741
17:00−13sw1282100 0.1 1007576
20:00−17sse1296100 0.1 100720
8 march, mon
mon823:00−19sse1210095 0.1 100720
02:00−20se2210077 0.0 100623
05:00−20ese239986 0.1 100585
08:00−19ese3798100 0.1 1003213
11:00−15ese3693100 0.1 1002337
14:00−11ese3691100 0.2 1000498
17:00−10e3692100 0.4 999578
20:00−11e4994100 0.4 998547
9 march, tue
tue923:00−14ene3795100 0.6 999301
02:00−15ne379697 0.2 1000300
05:00−15nne259698 0.4 1001207
08:00−17n3795100 0.1 1003277
11:00−17n3693100 0.3 1004307
14:00−17nnw4791100 0.1 1005378
17:00−17nnw4889100 0.1 1007437
20:00−21nnw499499 0.0 1009401
10 march, wed
wed1023:00−26n399463 0.0 1012310
02:00−29nnw38950 0.0 1013239
05:00−32nnw37960 0.0 1015161
08:00−33nnw37960 0.0 1015149
11:00−27nnw25920 0.0 1015306
14:00−21nw248336 0.0 1013500
17:00−19wnw258540 0.0 1012517
20:00−21wsw229757 0.0 101238
11 march, thu
thu1123:00−21wsw269878 0.1 1012171
02:00−20w2798100 0.2 1010358
05:00−20w2698100 0.4 1010256
08:00−20wsw3797100 0.1 1009278
11:00−17wsw3694100 0.3 1009379
14:00−13w3691100 0.4 1009629
17:00−11nw3792100 0.8 1009730
20:00−13wnw2294100 0.1 101124